CZ-6A DEB, 56642

Orbit data source: Space-Track

CZ-6A DEB, 56642 is space debris in SSO originally from a launch on Fri, 11 Nov 2022 UTC launched from the Taiyaun Space Center, China (TSC). Debris objects in space refer to the collection of defunct objects orbiting the Earth. Examples of debris include non-operational satellites, rocket bodies, and fragments generated from explosions, collisions, or faulty payload assembly.

Loading next visibility...
Identifier
56642, 2022-151AFS
Orbit
SSO
Country
Flag of CNCN / PRC
Related business
Manufacturer
SAST
Mission
Spacecraft
Bus & Motor
Unknown
Mass
Unknown
Launch date (UTC)
2022-11-11 (4 years ago)
Launch vehicle
Unknown
Launch site
Taiyaun Space Center, China (TSC)
Object type
Payload
Rocket body
Debris
Shape & HBR
Unknown shape, 0.1 m
Radar Cross Section
Small (<0.1 m²)

Expand to show TLE details & history
Last TLE update: 1 week ago

TLE from 1 week ago
0 CZ-6A DEB
1 56642U 22151AFS 26230.15929619  .00000056  00000-0  71125-4 0  9990
2 56642  98.9195 194.7675 0126055 277.1665  81.5179 13.93364444168555
Epoch: 2026-08-18T03:49Z
TLE epoch observation values (Epoch: 2026-08-18T03:49:23.190Z)
Latitude
-0.00003°
Longitude
170.88976°
Altitude
907.307 km
Speed
7.405 km/s
True Right ascension
12h 59m 04s
True Declination
0° 00' 00"
Sunlit
Object was in daylight at epoch
Visualization orbit readout
Latitude
Unknown
Longitude
Unknown
Altitude
Unknown
Speed
Unknown
Apparent Right ascension
Unknown
Apparent Declination
Unknown
Sunlit
N/A
Visualization observer readout
Local Sidereal Time
12:57:49
Azimuth
Unknown
Elevation
Unknown
Doppler factor
Unknown
Orbital elements
Apogee altitude
1,005.99 km
Perigee altitude
822.146 km
Semi-major axis
7,292.205 km
Eccentricity
0.01261
Inclination
98.9195°
RAAN
194.7675°
Arg. of periapsis
277.1665°
True anomaly
82.94976°
Mean anomaly
81.5179°
Eccentric anomaly
82.23352°
Mean motion
3.48542 °/min
Orbital period
103.29 mins
BSTAR
0.000071125
Loading maneuver chart data...
Computing Atmospheric mass density...
Loading historical data...
Loading historical data...
Loading historical data...
Loading historical data...
Loading historical data...
Loading historical data...
Loading historical data...

Documentation

Showing up to 5 results
|